Location: Coopersdale
(40.3556°N, 78.9372°W)
Time: 08:32:56
(UTC+00:00)

Vanguard 1 - Pass Details

Date: 30 January 2021
Orbit: 649 x 3834 km, 34.2° (Epoch: 07 March)

Event Time Altitude Azimuth Distance (km) Brightness Sun altitude
Rises 23:17:22 0° 285° (WNW) 7,669 15.8 -9.0°
Reaches altitude 10° 23:23:01 10° 278° (W) 6,835 15.6 -10.0°
Maximum altitude 23:42:37 36° 222° (SW) 4,849 14.1 -13.7°
Drops below altitude 10° 23:59:02 10° 163° (SSE) 5,699 13.9 -16.7°
Sets 00:03:17 0° 155° (SSE) 6,319 14.0 -17.5°
